KC3BAN-3 Weather Reports


Display with metric or nautical units.
time (UTC)temp
F
wind
direction
speed
MPH
gust
MPH
rain 1hr
in
rain 24hr
in
rain mn
in
humidity
%
barometer
mb
20221209161229 52 49 12.0 18.0 0.00 0.00 0.00 82 1022.8
20221209160729 52 358 12.0 18.0 0.00 0.00 0.00 82 1022.8
20221209160228 52 25 13.0 19.0 0.00 0.00 0.00 82 1022.8
20221209155728 52 44 12.0 19.0 0.00 0.00 0.00 82 1022.9
20221209155229 52 346 11.0 18.0 0.00 0.00 0.00 82 1022.8
20221209154944 52 1 12.0 18.0 0.00 0.00 0.00 82 1023.0
20221209154229 53 27 11.0 18.0 0.00 0.00 0.00 82 1023.1
20221209153729 53 358 11.0 17.0 0.00 0.00 0.00 82 1023.1
20221209153229 53 28 12.0 17.0 0.00 0.00 0.00 82 1023.1
20221209152722 52 72 12.0 18.0 0.00 0.00 0.00 81 1023.0
20221209152223 52 18 12.0 18.0 0.00 0.00 0.00 82 1023.1
20221209151723 53 18 11.0 18.0 0.00 0.00 0.00 82 1023.2
20221209151222 53 9 11.0 18.0 0.00 0.00 0.00 82 1023.1
20221209150933 53 355 11.0 16.0 0.00 0.00 0.00 82 1023.0
20221209150222 52 335 11.0 18.0 0.00 0.00 0.00 82 1023.0
20221209145722 52 39 12.0 18.0 0.00 0.00 0.00 82 1023.1
20221209145223 52 20 12.0 19.0 0.00 0.00 0.00 82 1023.1
20221209144722 52 47 12.0 19.0 0.00 0.00 0.00 82 1023.1
20221209144222 52 20 12.0 18.0 0.00 0.00 0.00 82 1023.3
20221209143723 52 51 11.0 19.0 0.00 0.00 0.00 82 1023.1
20221209143433 52 4 12.0 19.0 0.00 0.00 0.00 82 1023.1
20221209142723 52 60 12.0 18.0 0.00 0.00 0.00 82 1023.1
20221209142223 52 51 13.0 19.0 0.00 0.00 0.00 82 1023.1
20221209141723 52 44 12.0 19.0 0.00 0.00 0.00 82 1023.0
20221209141225 52 50 13.0 19.0 0.00 0.00 0.00 82 1023.0
20221209140725 52 9 13.0 19.0 0.00 0.00 0.00 82 1022.8
20221209140219 52 41 12.0 19.0 0.00 0.00 0.00 82 1022.9
20221209135924 52 329 13.0 19.0 0.00 0.00 0.00 82 1022.8
20221209135207 52 56 13.0 19.0 0.00 0.00 0.00 82 1022.8
20221209134705 53 39 13.0 19.0 0.00 0.00 0.00 82 1022.7
20221209134204 53 52 13.0 21.0 0.00 0.00 0.00 82 1022.8
20221209133703 52 45 13.0 21.0 0.00 0.00 0.00 81 1022.7
20221209133201 53 40 13.0 18.0 0.00 0.00 0.00 81 1022.7
20221209132702 53 27 13.0 18.0 0.00 0.00 0.00 81 1022.7
20221209132201 53 59 12.0 18.0 0.00 0.00 0.00 81 1022.5
20221209131702 53 6 12.0 19.0 0.00 0.00 0.00 81 1022.5
20221209131202 53 68 13.0 19.0 0.00 0.00 0.00 81 1022.4
20221209130702 53 20 13.0 20.0 0.00 0.00 0.00 81 1022.5
20221209130417 53 37 13.0 20.0 0.00 0.00 0.00 80 1022.5
20221209125700 53 72 13.0 21.0 0.00 0.00 0.00 80 1022.4
20221209125201 52 351 13.0 21.0 0.00 0.00 0.00 80 1022.6
20221209124701 52 60 12.0 19.0 0.00 0.00 0.00 80 1022.4
20221209124201 53 52 11.0 19.0 0.00 0.00 0.00 80 1022.2
20221209123911 53 67 11.0 17.0 0.00 0.00 0.00 80 1022.2
20221209123201 53 44 12.0 19.0 0.00 0.00 0.00 80 1022.1
20221209122658 53 68 13.0 20.0 0.00 0.00 0.00 80 1022.2
20221209122152 52 36 13.0 20.0 0.00 0.00 0.00 80 1022.3
20221209121903 52 28 13.0 19.0 0.00 0.00 0.00 80 1022.3
20221209121152 52 21 13.0 20.0 0.00 0.00 0.00 80 1022.1
20221209120904 53 25 14.0 21.0 0.00 0.00 0.00 80 1022.1
20221209120152 53 35 15.0 21.0 0.00 0.00 0.00 80 1022.2
20221209115905 53 352 14.0 21.0 0.00 0.00 0.00 80 1022.2
20221209115155 53 84 14.0 22.0 0.00 0.00 0.00 80 1022.1
20221209114652 53 20 14.0 22.0 0.00 0.00 0.00 80 1022.1
20221209114152 53 47 14.0 19.0 0.00 0.00 0.00 79 1022.2
20221209113652 53 37 14.0 19.0 0.00 0.00 0.00 79 1022.2
20221209113152 53 36 13.0 18.0 0.00 0.00 0.00 79 1022.2
20221209112651 53 60 13.0 19.0 0.00 0.00 0.00 79 1022.2
20221209112152 53 328 13.0 19.0 0.00 0.00 0.00 79 1022.3
20221209111652 53 347 13.0 19.0 0.00 0.00 0.00 79 1022.3
20221209111151 53 39 13.0 19.0 0.00 0.00 0.00 79 1022.2
20221209110905 53 58 13.0 20.0 0.00 0.00 0.00 79 1022.2
20221209110402 53 30 13.0 20.0 0.00 0.00 0.00 78 1022.2
20221209105900 53 31 14.0 21.0 0.00 0.00 0.00 79 1022.2
20221209105144 53 346 14.0 21.0 0.00 0.00 0.00 78 1021.9
20221209104642 53 20 13.0 19.0 0.00 0.00 0.00 79 1021.9
20221209104130 53 15 14.0 20.0 0.00 0.00 0.00 78 1021.9
20221209103630 53 62 13.0 20.0 0.00 0.00 0.00 78 1021.8
20221209103130 53 49 11.0 17.0 0.00 0.00 0.00 79 1021.7
20221209102631 53 31 11.0 17.0 0.00 0.00 0.00 79 1021.7
20221209102130 53 50 11.0 17.0 0.00 0.00 0.00 79 1021.8
20221209101844 53 20 12.0 17.0 0.00 0.00 0.00 78 1021.8
20221209101132 54 21 12.0 18.0 0.00 0.00 0.00 79 1021.9
20221209100845 53 57 11.0 18.0 0.00 0.00 0.00 78 1022.0
20221209100135 53 44 11.0 18.0 0.00 0.00 0.00 79 1022.0
20221209095846 53 50 13.0 18.0 0.00 0.00 0.00 79 1021.9
20221209095130 53 18 13.0 18.0 0.00 0.00 0.00 79 1021.9
20221209094630 54 2 12.0 18.0 0.00 0.00 0.00 79 1021.7
20221209094131 54 33 12.0 19.0 0.00 0.00 0.00 79 1021.8
20221209093632 53 44 12.0 19.0 0.00 0.00 0.00 79 1021.9
20221209093341 53 40 11.0 18.0 0.00 0.00 0.00 80 1021.9
20221209092630 54 8 9.0 15.0 0.00 0.00 0.00 80 1021.6
20221209092129 54 14 10.0 16.0 0.00 0.00 0.00 80 1021.8
20221209091630 53 56 11.0 16.0 0.00 0.00 0.00 80 1021.7
20221209091130 53 71 10.0 17.0 0.00 0.00 0.00 80 1021.6
20221209090846 54 18 10.0 17.0 0.00 0.00 0.00 80 1021.7
20221209090408 54 57 10.0 17.0 0.00 0.00 0.00 81 1021.7
20221209090131 54 57 10.0 17.0 0.00 0.00 0.00 81 1021.7
20221209085630 54 63 10.0 17.0 0.00 0.00 0.00 81 1021.7
20221209085346 54 61 10.0 17.0 0.00 0.00 0.00 81 1021.8
20221209084636 54 53 10.0 16.0 0.00 0.00 0.00 81 1022.0
20221209084132 54 65 10.0 16.0 0.00 0.00 0.00 81 1021.8
20221209083632 54 56 10.0 16.0 0.00 0.00 0.00 81 1021.7
20221209083135 54 65 10.0 16.0 0.00 0.00 0.00 81 1021.7
20221209082631 54 75 10.0 19.0 0.00 0.00 0.00 82 1021.8
20221209082130 54 70 11.0 19.0 0.00 0.00 0.00 81 1022.0
20221209081630 54 49 11.0 16.0 0.00 0.00 0.00 82 1021.9
20221209081343 54 34 11.0 17.0 0.00 0.00 0.00 82 1021.9
20221209080629 54 43 11.0 17.0 0.00 0.00 0.00 82 1021.9
20221209080130 54 32 12.0 19.0 0.00 0.00 0.00 82 1022.1
20221209075630 54 64 12.0 19.0 0.00 0.00 0.00 82 1022.1
20221209075129 54 50 11.0 17.0 0.00 0.00 0.00 82 1022.2
20221209074629 54 55 11.0 19.0 0.00 0.00 0.00 81 1022.2
20221209074130 55 72 11.0 19.0 0.00 0.00 0.00 81 1022.2
20221209073629 55 26 11.0 17.0 0.00 0.00 0.00 81 1022.2
20221209073129 55 56 11.0 19.0 0.00 0.00 0.00 81 1022.3
20221209072629 55 14 11.0 19.0 0.00 0.00 0.00 81 1022.5
20221209072129 55 51 11.0 17.0 0.00 0.00 0.00 81 1022.4
20221209071841 55 46 11.0 17.0 0.00 0.00 0.00 81 1022.4
20221209071129 55 51 11.0 17.0 0.00 0.00 0.00 80 1022.2
20221209070629 55 61 11.0 19.0 0.00 0.00 0.00 80 1022.3
20221209070135 55 49 11.0 19.0 0.00 0.00 0.00 80 1022.4
20221209065629 55 38 12.0 18.0 0.00 0.00 0.00 79 1022.2
20221209065129 55 72 12.0 18.0 0.00 0.00 0.00 79 1022.1
20221209064843 55 89 11.0 19.0 0.00 0.00 0.00 79 1022.1
20221209064129 55 49 11.0 19.0 0.00 0.00 0.00 79 1022.3
20221209063629 55 49 11.0 17.0 0.00 0.00 0.00 79 1022.3
20221209063129 55 64 11.0 17.0 0.00 0.00 0.00 79 1022.2
20221209062628 55 77 11.0 17.0 0.00 0.00 0.00 79 1022.2
20221209062333 55 46 10.0 17.0 0.00 0.00 0.00 79 1022.4
20221209061831 55 82 11.0 17.0 0.00 0.00 0.00 79 1022.6
20221209061110 55 52 11.0 18.0 0.00 0.00 0.00 78 1022.5
20221209060817 55 32 11.0 18.0 0.00 0.00 0.00 78 1022.4
20221209060102 55 24 10.0 15.0 0.00 0.00 0.00 79 1022.4
20221209055602 55 65 10.0 15.0 0.00 0.00 0.00 79 1022.4
20221209055102 55 23 11.0 16.0 0.00 0.00 0.00 78 1022.3
20221209054602 55 91 11.0 16.0 0.00 0.00 0.00 78 1022.2
20221209054102 55 69 11.0 16.0 0.00 0.00 0.00 78 1022.4
20221209053602 55 60 11.0 18.0 0.00 0.00 0.00 78 1022.5
20221209053102 55 9 11.0 18.0 0.00 0.00 0.00 78 1022.4
20221209052602 55 53 11.0 18.0 0.00 0.00 0.00 78 1022.3
20221209052102 55 67 11.0 18.0 0.00 0.00 0.00 78 1022.3
20221209051602 55 65 10.0 16.0 0.00 0.00 0.00 78 1022.3
20221209051101 55 49 11.0 16.0 0.00 0.00 0.00 78 1022.3
20221209050602 55 53 11.0 17.0 0.00 0.01 0.00 78 1022.3
20221209050104 55 89 11.0 17.0 0.00 0.01 0.00 79 1022.3
20221209045607 55 40 11.0 16.0 0.00 0.01 0.01 78 1022.1
20221209045103 55 15 10.0 18.0 0.00 0.01 0.01 79 1022.2
20221209044604 55 82 10.0 18.0 0.00 0.01 0.01 79 1022.3
20221209044109 55 60 11.0 18.0 0.00 0.01 0.01 79 1022.3
20221209043603 55 46 10.0 18.0 0.00 0.01 0.01 79 1022.5
20221209043103 55 56 9.0 16.0 0.00 0.01 0.01 80 1022.6
20221209042816 55 70 9.0 14.0 0.00 0.01 0.01 79 1022.6
20221209042103 55 77 9.0 15.0 0.00 0.01 0.01 79 1022.6
20221209041603 55 63 9.0 16.0 0.00 0.01 0.01 79 1022.4
20221209041320 55 43 9.0 16.0 0.00 0.01 0.01 79 1022.6
20221209040603 55 27 8.0 14.0 0.00 0.01 0.01 79 1022.6
20221209040104 55 32 9.0 16.0 0.00 0.01 0.01 79 1022.4
20221209035603 55 70 10.0 16.0 0.00 0.01 0.01 79 1022.2
20221209035104 55 58 10.0 15.0 0.00 0.01 0.01 79 1022.2
20221209034606 55 72 10.0 15.0 0.00 0.01 0.01 79 1022.3
20221209034106 55 97 10.0 15.0 0.00 0.01 0.01 79 1022.2
20221209033608 55 39 9.0 14.0 0.00 0.01 0.01 79 1022.1
20221209033104 55 47 9.0 14.0 0.00 0.01 0.01 80 1022.1
20221209032817 55 341 9.0 13.0 0.00 0.01 0.01 79 1022.2
20221209032104 55 62 9.0 15.0 0.00 0.01 0.01 79 1022.3
20221209031604 55 68 10.0 15.0 0.00 0.01 0.01 79 1022.6
20221209031108 55 64 9.0 15.0 0.00 0.01 0.01 80 1022.8
20221209030603 55 41 9.0 16.0 0.00 0.01 0.01 80 1022.7
20221209030103 55 43 9.0 16.0 0.00 0.01 0.01 80 1022.5
20221209025819 55 20 9.0 15.0 0.00 0.01 0.01 80 1022.3
20221209025103 55 70 9.0 15.0 0.00 0.01 0.01 81 1022.4
20221209024815 55 25 10.0 15.0 0.00 0.01 0.01 80 1022.5
20221209024106 55 39 10.0 16.0 0.00 0.01 0.01 80 1022.5
20221209023603 55 51 10.0 17.0 0.00 0.01 0.01 80 1022.5
20221209023103 55 14 10.0 17.0 0.00 0.01 0.01 80 1022.3
20221209022608 55 41 10.0 15.0 0.00 0.01 0.01 80 1022.2
20221209022106 55 53 10.0 15.0 0.00 0.01 0.01 80 1022.4
20221209021823 55 348 9.0 15.0 0.00 0.01 0.01 80 1022.5
20221209021103 56 39 9.0 15.0 0.00 0.01 0.01 81 1022.5
20221209020603 56 49 10.0 17.0 0.00 0.01 0.01 81 1022.6
20221209020103 56 109 10.0 17.0 0.00 0.01 0.01 81 1022.8
20221209015606 56 41 11.0 17.0 0.00 0.01 0.01 81 1022.9
20221209015105 55 65 11.0 17.0 0.00 0.01 0.01 80 1023.0
20221209014604 55 60 10.0 17.0 0.00 0.01 0.01 81 1023.0
20221209014106 55 348 10.0 17.0 0.00 0.01 0.01 81 1023.0
20221209013606 56 22 10.0 16.0 0.00 0.01 0.01 81 1022.9
20221209013103 56 46 11.0 16.0 0.00 0.01 0.01 81 1022.7
20221209012603 55 32 11.0 16.0 0.00 0.01 0.01 81 1022.5
20221209012102 55 28 9.0 16.0 0.00 0.01 0.01 81 1022.5
20221209011603 56 46 8.0 15.0 0.00 0.01 0.01 81 1022.3
20221209011108 56 52 8.0 15.0 0.00 0.01 0.01 81 1022.5
20221209010815 56 336 8.0 15.0 0.00 0.01 0.01 81 1022.4
20221209010106 56 18 9.0 16.0 0.00 0.01 0.01 81 1022.6
20221209005606 56 56 9.0 17.0 0.00 0.01 0.01 81 1022.6
20221209005103 56 59 9.0 17.0 0.00 0.01 0.01 81 1022.7
20221209004559 56 56 9.0 15.0 0.00 0.01 0.01 81 1022.7
20221209004058 56 64 9.0 15.0 0.00 0.01 0.01 81 1022.8
20221209003559 56 87 9.0 15.0 0.00 0.01 0.01 81 1022.8
20221209003101 56 20 10.0 14.0 0.00 0.01 0.01 81 1022.9
20221209002602 56 51 10.0 14.0 0.00 0.01 0.01 81 1022.8
20221209002104 56 30 9.0 16.0 0.00 0.01 0.01 81 1022.8
20221209001601 56 59 9.0 16.0 0.00 0.01 0.01 81 1022.8
20221209001100 56 53 9.0 15.0 0.00 0.01 0.01 81 1022.7
20221209000600 56 59 9.0 16.0 0.00 0.01 0.01 81 1022.6
20221209000059 56 49 10.0 16.0 0.00 0.01 0.01 81 1022.7
20221208235559 56 51 10.0 16.0 0.00 0.01 0.01 81 1022.6
20221208235314 56 34 10.0 16.0 0.00 0.01 0.01 80 1022.4
20221208234557 56 62 10.0 16.0 0.00 0.01 0.01 81 1022.3
20221208234057 56 50 10.0 16.0 0.00 0.01 0.01 81 1022.4
20221208233558 56 49 10.0 16.0 0.00 0.01 0.01 81 1022.5
20221208233059 56 64 10.0 18.0 0.00 0.01 0.01 81 1022.5
20221208232559 56 48 11.0 18.0 0.00 0.01 0.01 81 1022.6
20221208232312 56 41 12.0 17.0 0.00 0.01 0.01 81 1022.5
20221208231559 56 19 12.0 18.0 0.00 0.02 0.01 81 1022.6
20221208231056 56 50 12.0 18.0 0.00 0.02 0.01 81 1022.6
20221208230556 56 40 11.0 17.0 0.00 0.03 0.01 81 1023.1
20221208230056 56 330 10.0 17.0 0.00 0.04 0.01 81 1022.5
20221208225556 56 44 10.0 17.0 0.00 0.04 0.01 81 1022.2
20221208225056 56 53 9.0 15.0 0.00 0.06 0.01 81 1022.5
20221208224559 56 8 9.0 15.0 0.00 0.06 0.01 81 1022.4
20221208224056 56 68 9.0 15.0 0.00 0.06 0.01 81 1022.5
20221208223559 56 54 9.0 16.0 0.00 0.06 0.01 81 1022.4
20221208223057 56 24 9.0 16.0 0.00 0.06 0.01 81 1022.5
20221208222556 56 36 9.0 15.0 0.00 0.06 0.01 81 1022.5
20221208222306 56 48 9.0 15.0 0.00 0.06 0.01 81 1022.2
20221208221551 56 39 9.0 13.0 0.00 0.06 0.01 81 1021.8
20221208221051 56 88 9.0 14.0 0.00 0.06 0.01 81 1021.9
20221208220550 56 26 10.0 15.0 0.00 0.06 0.01 81 1022.1
20221208220050 56 27 10.0 16.0 0.00 0.06 0.01 81 1022.2
20221208215550 56 65 10.0 16.0 0.00 0.06 0.01 81 1022.1
20221208215051 56 0 9.0 14.0 0.00 0.06 0.01 81 1022.1
20221208214550 56 13 9.0 17.0 0.00 0.06 0.01 80 1021.9
20221208214051 56 20 9.0 17.0 0.00 0.06 0.01 81 1022.2
20221208213546 56 58 9.0 14.0 0.00 0.06 0.01 80 1022.0
20221208213046 56 53 8.0 14.0 0.00 0.06 0.01 80 1021.9
20221208212546 56 32 8.0 15.0 0.00 0.06 0.01 80 1022.2
20221208212047 56 35 8.0 15.0 0.00 0.06 0.01 80 1022.0
20221208211547 56 29 8.0 14.0 0.00 0.06 0.01 80 1022.0
20221208211047 56 72 9.0 16.0 0.00 0.06 0.01 80 1022.0
20221208210550 56 47 10.0 16.0 0.00 0.06 0.01 79 1022.2
20221208210300 56 28 10.0 16.0 0.00 0.06 0.01 79 1022.2
20221208205547 56 72 11.0 17.0 0.00 0.06 0.01 78 1022.5
20221208205047 56 59 12.0 18.0 0.00 0.06 0.01 78 1022.4
20221208204546 56 49 13.0 19.0 0.00 0.06 0.01 78 1022.8
20221208204046 56 59 12.0 19.0 0.00 0.06 0.01 78 1022.4
20221208203547 56 56 12.0 18.0 0.00 0.06 0.01 79 1022.2
20221208203047 56 49 13.0 20.0 0.00 0.06 0.01 79 1022.3
20221208202547 56 82 13.0 20.0 0.00 0.06 0.01 79 1022.1
20221208202050 56 64 13.0 19.0 0.00 0.06 0.01 79 1022.3
20221208201548 56 41 11.0 18.0 0.00 0.06 0.01 80 1022.2
20221208201259 57 39 11.0 19.0 0.00 0.06 0.01 80 1022.0
20221208200547 57 60 12.0 19.0 0.00 0.06 0.01 80 1022.0
20221208200046 57 65 13.0 20.0 0.00 0.06 0.01 80 1021.9
20221208195547 57 29 14.0 20.0 0.00 0.06 0.01 80 1021.8
20221208195048 57 42 14.0 20.0 0.00 0.06 0.01 80 1021.8
20221208194546 57 44 14.0 21.0 0.00 0.06 0.01 80 1022.0
20221208194046 57 29 14.0 21.0 0.00 0.06 0.01 80 1022.1
20221208193547 57 30 14.0 20.0 0.00 0.06 0.01 80 1021.9
20221208193258 58 34 13.0 20.0 0.00 0.06 0.01 80 1021.8
20221208192546 58 56 13.0 20.0 0.00 0.06 0.01 80 1021.8
20221208192046 58 33 14.0 20.0 0.00 0.06 0.01 80 1021.9
20221208191547 58 37 14.0 20.0 0.00 0.06 0.01 79 1022.1
20221208191303 58 18 13.0 19.0 0.00 0.06 0.01 79 1022.1
20221208190549 58 29 13.0 18.0 0.00 0.06 0.01 79 1022.3
20221208190044 58 77 13.0 19.0 0.00 0.06 0.01 79 1022.2
20221208185544 58 340 13.0 19.0 0.00 0.06 0.01 79 1022.2
20221208185044 58 57 13.0 18.0 0.00 0.06 0.01 79 1022.2
20221208184544 58 44 13.0 19.0 0.00 0.06 0.01 79 1022.3
20221208184044 58 31 13.0 20.0 0.00 0.06 0.01 80 1022.3
20221208183542 58 60 13.0 20.0 0.00 0.06 0.01 80 1022.2
20221208183042 58 32 13.0 19.0 0.00 0.06 0.01 80 1022.2
20221208182541 58 20 13.0 19.0 0.00 0.06 0.01 81 1022.2
20221208182043 58 24 13.0 19.0 0.00 0.06 0.01 81 1022.2
20221208181542 58 18 13.0 19.0 0.00 0.06 0.01 82 1022.4
20221208181042 57 43 14.0 20.0 0.00 0.06 0.01 82 1022.4
20221208180542 58 11 14.0 20.0 0.00 0.06 0.01 82 1022.3
20221208180040 58 37 13.0 19.0 0.00 0.06 0.01 81 1022.4
20221208175538 58 33 14.0 20.0 0.00 0.06 0.01 82 1022.4
20221208175039 58 58 14.0 21.0 0.00 0.06 0.01 83 1022.6
20221208174539 58 46 14.0 21.0 0.00 0.06 0.01 83 1022.8
20221208174034 58 10 14.0 21.0 0.00 0.06 0.01 83 1022.7
20221208173819 58 41 15.0 21.0 0.00 0.06 0.01 83 1022.6
20221208173746 58 41 15.0 21.0 0.00 0.06 0.01 83 1022.6
20221208173035 58 38 15.0 21.0 0.00 0.06 0.01 83 1022.6
20221208172534 58 53 13.0 20.0 0.00 0.06 0.01 83 1022.5
20221208172035 58 49 12.0 19.0 0.00 0.06 0.01 83 1022.5
20221208171534 58 57 13.0 19.0 0.00 0.06 0.01 83 1022.6
20221208171035 58 34 12.0 20.0 0.00 0.06 0.01 84 1022.6
20221208170535 58 352 12.0 20.0 0.00 0.06 0.01 85 1022.4
20221208170032 58 55 12.0 20.0 0.00 0.06 0.01 85 1022.7
20221208165532 58 100 11.0 18.0 0.00 0.06 0.01 86 1022.9
20221208165032 58 68 10.0 16.0 0.00 0.06 0.01 87 1022.9
20221208164534 58 54 11.0 18.0 0.00 0.06 0.01 88 1023.0
20221208164032 58 8 11.0 18.0 0.00 0.06 0.01 89 1023.1
20221208163530 57 46 10.0 16.0 0.00 0.06 0.01 90 1023.2
20221208163247 57 58 10.0 16.0 0.00 0.06 0.01 91 1023.2
20221208162532 57 81 11.0 17.0 0.00 0.06 0.01 91 1023.1
20221208162030 57 57 11.0 17.0 0.00 0.06 0.01 92 1022.9